THY2DJ OPKC-LTFM

Flight info

Callsign THY2DJ
Flight time N/A
Altitude 39000
Route BADUL3A/25L BADUL R471 NH G326 ZB/N0491F400 L750 RANAH B449 MAMED B450 MAHYM A477 BABUM A909 RODAR N644 ADEKI DCT BADIR DCT LAGAS DCT NOLGA UG261 TBN UM11 CRM UL746 GOKPA UM10 HAKAN UN644 GUMRU UT315 NUGBA
Aircraft A359/H-SDE2E3GHIJ3J4J5LM1ORWXY/LB1D1

Departure

Time 2026-05-07 10:51
Airport Jinnah International Airport (OPKC)

Arrival

Time N/A
Airport İstanbul Airport (LTFM)
Time Latitude Longitude Altitude Speed Heading
2026-05-07 10:51 24.91224 67.18630 2862 ft 259 kts 30°
2026-05-07 10:51 24.92713 67.19750 3376 ft 263 kts 34°
2026-05-07 10:52 24.94199 67.21008 3690 ft 275 kts 36°
2026-05-07 10:52 24.95715 67.22353 4108 ft 282 kts 37°
2026-05-07 10:52 24.97230 67.23723 4689 ft 283 kts 37°
2026-05-07 10:52 24.98755 67.25112 5202 ft 284 kts 38°
2026-05-07 10:53 25.00277 67.26508 5746 ft 285 kts 38°
2026-05-07 10:53 25.01806 67.27912 6268 ft 287 kts 38°
2026-05-07 10:53 25.03344 67.29326 6627 ft 288 kts 37°
2026-05-07 10:53 25.04883 67.30742 6727 ft 289 kts 38°
2026-05-07 10:54 25.06427 67.32164 6747 ft 289 kts 37°
2026-05-07 10:54 25.07975 67.33589 6743 ft 289 kts 38°
2026-05-07 10:54 25.09496 67.34990 6740 ft 287 kts 38°
2026-05-07 10:54 25.10999 67.36380 6780 ft 269 kts 38°
2026-05-07 10:55 25.12398 67.37673 7033 ft 262 kts 38°
2026-05-07 10:55 25.13817 67.38979 7373 ft 268 kts 39°
2026-05-07 10:55 25.15244 67.40296 7889 ft 268 kts 38°
2026-05-07 10:55 25.16668 67.41609 8281 ft 275 kts 37°
2026-05-07 10:56 25.18175 67.42997 8533 ft 288 kts 38°
2026-05-07 10:56 25.19724 67.44426 8960 ft 292 kts 38°
2026-05-07 10:56 25.21284 67.45869 9496 ft 293 kts 38°
2026-05-07 10:56 25.22852 67.47319 9942 ft 297 kts 38°
2026-05-07 10:57 25.24472 67.48813 10145 ft 310 kts 38°
2026-05-07 10:57 25.26168 67.50363 10314 ft 323 kts 38°
2026-05-07 10:57 25.27932 67.51968 10515 ft 334 kts 37°
2026-05-07 10:57 25.29757 67.53628 10660 ft 346 kts 38°
2026-05-07 10:58 25.31647 67.55348 10794 ft 357 kts 39°
2026-05-07 10:58 25.33588 67.57121 10922 ft 367 kts 38°
2026-05-07 10:58 25.35578 67.58942 11136 ft 374 kts 39°
2026-05-07 10:58 25.37587 67.60783 11499 ft 376 kts 39°
2026-05-07 10:59 25.39599 67.62630 11911 ft 376 kts 39°
2026-05-07 10:59 25.41576 67.64445 12063 ft 360 kts 38°
2026-05-07 10:59 25.43511 67.66222 12144 ft 366 kts 38°
2026-05-07 10:59 25.45490 67.68037 12369 ft 371 kts 39°
2026-05-07 11:00 25.47449 67.69835 13122 ft 360 kts 39°
2026-05-07 11:00 25.49338 67.71575 13933 ft 348 kts 38°
2026-05-07 11:00 25.51189 67.73278 14485 ft 346 kts 38°
2026-05-07 11:00 25.53048 67.74984 14826 ft 349 kts 38°
2026-05-07 11:01 25.54924 67.76705 15216 ft 351 kts 38°
2026-05-07 11:01 25.56801 67.78428 15675 ft 351 kts 38°
2026-05-07 11:01 25.58690 67.80163 16010 ft 355 kts 38°
2026-05-07 11:01 25.60595 67.81916 16387 ft 356 kts 38°
2026-05-07 11:02 25.62508 67.83677 16817 ft 358 kts 38°
2026-05-07 11:02 25.64427 67.85445 17158 ft 361 kts 38°
2026-05-07 11:02 25.66364 67.87230 17576 ft 362 kts 38°
2026-05-07 11:02 25.68300 67.89016 17969 ft 364 kts 38°
2026-05-07 11:03 25.70256 67.90819 18265 ft 367 kts 38°
2026-05-07 11:03 25.72225 67.92636 18583 ft 369 kts 38°
2026-05-07 11:03 25.74201 67.94460 18893 ft 371 kts 38°
2026-05-07 11:03 25.76165 67.96274 19202 ft 373 kts 37°
2026-05-07 11:04 25.78191 67.98145 19531 ft 375 kts 37°
2026-05-07 11:04 25.80172 67.99976 19855 ft 376 kts 37°
2026-05-07 11:04 25.82189 68.01841 20163 ft 378 kts 37°
2026-05-07 11:04 25.84212 68.03713 20428 ft 376 kts 37°
2026-05-07 11:05 25.86187 68.05545 20421 ft 367 kts 37°
2026-05-07 11:05 25.88156 68.07371 20512 ft 371 kts 36°
2026-05-07 11:05 25.90174 68.09237 20840 ft 376 kts 36°
2026-05-07 11:05 25.92178 68.11090 21199 ft 383 kts 36°
2026-05-07 11:06 25.94260 68.13018 21679 ft 386 kts 36°
2026-05-07 11:06 25.96306 68.14916 22183 ft 390 kts 36°
2026-05-07 11:06 25.98394 68.16854 22684 ft 393 kts 35°
2026-05-07 11:06 26.00499 68.18809 23181 ft 396 kts 35°
2026-05-07 11:07 26.02619 68.20780 23639 ft 398 kts 35°
2026-05-07 11:07 26.04750 68.22762 24086 ft 401 kts 34°
2026-05-07 11:07 26.06893 68.24755 24553 ft 403 kts 34°
2026-05-07 11:07 26.09052 68.26764 24980 ft 406 kts 34°
2026-05-07 11:08 26.11225 68.28787 25436 ft 408 kts 34°
2026-05-07 11:08 26.13406 68.30818 25877 ft 411 kts 34°
2026-05-07 11:08 26.15606 68.32868 26301 ft 413 kts 33°
2026-05-07 11:08 26.17819 68.34931 26735 ft 416 kts 33°
2026-05-07 11:09 26.20071 68.36959 27150 ft 416 kts 30°
2026-05-07 11:09 26.22486 68.38711 27569 ft 413 kts 22°
2026-05-07 11:09 26.25037 68.40152 27996 ft 412 kts 19°
2026-05-07 11:09 26.27637 68.41494 28429 ft 413 kts 18°
2026-05-07 11:10 26.30269 68.42793 28858 ft 414 kts 17°
2026-05-07 11:10 26.32903 68.44068 29428 ft 412 kts 16°
2026-05-07 11:10 26.34641 68.44906 29805 ft 410 kts 16°
2026-05-07 11:10 26.37258 68.46169 30227 ft 409 kts 16°
2026-05-07 11:11 26.39881 68.47437 30530 ft 413 kts 16°
2026-05-07 11:11 26.42537 68.48722 30686 ft 420 kts 16°
2026-05-07 11:11 26.45238 68.50032 30811 ft 427 kts 16°
2026-05-07 11:11 26.47986 68.51371 30939 ft 434 kts 16°
2026-05-07 11:12 26.50777 68.52735 31063 ft 441 kts 17°
2026-05-07 11:12 26.53611 68.54123 31218 ft 448 kts 16°
2026-05-07 11:12 26.56482 68.55532 31350 ft 454 kts 17°
2026-05-07 11:12 26.59395 68.56962 31474 ft 460 kts 17°
2026-05-07 11:13 26.62346 68.58411 31598 ft 466 kts 17°
2026-05-07 11:13 26.65329 68.59877 31719 ft 472 kts 17°
2026-05-07 11:13 26.68350 68.61363 31837 ft 477 kts 17°
2026-05-07 11:13 26.71392 68.62861 32060 ft 479 kts 17°
2026-05-07 11:14 26.74445 68.64368 32365 ft 479 kts 17°
2026-05-07 11:14 26.77497 68.65875 32675 ft 480 kts 17°
2026-05-07 11:14 26.80551 68.67383 32988 ft 480 kts 16°
2026-05-07 11:14 26.83605 68.68889 33292 ft 480 kts 16°
2026-05-07 11:15 26.86661 68.70397 33590 ft 480 kts 16°
2026-05-07 11:15 26.89717 68.71905 33868 ft 480 kts 16°
2026-05-07 11:15 26.92805 68.73292 34099 ft 475 kts 11°
2026-05-07 11:15 26.95968 68.74255 34295 ft 468 kts
2026-05-07 11:16 26.99175 68.74767 34528 ft 464 kts 359°
2026-05-07 11:16 27.02383 68.75067 34830 ft 460 kts 357°
2026-05-07 11:16 27.05578 68.75261 35111 ft 459 kts 356°
2026-05-07 11:16 27.08767 68.75407 35318 ft 459 kts 355°
2026-05-07 11:17 27.11924 68.75536 35519 ft 460 kts 355°
2026-05-07 11:17 27.15122 68.75669 35738 ft 460 kts 355°
2026-05-07 11:17 27.18324 68.75813 35942 ft 461 kts 355°
2026-05-07 11:17 27.21530 68.75967 36160 ft 462 kts 356°
2026-05-07 11:18 27.24740 68.76128 36366 ft 462 kts 356°
2026-05-07 11:18 27.27955 68.76293 36558 ft 463 kts 356°
2026-05-07 11:18 27.31169 68.76462 36883 ft 461 kts 355°
2026-05-07 11:18 27.34366 68.76631 37158 ft 460 kts 355°
2026-05-07 11:19 27.37562 68.76799 37333 ft 460 kts 355°
2026-05-07 11:19 27.40763 68.76964 37497 ft 461 kts 355°
2026-05-07 11:19 27.43972 68.77130 37617 ft 463 kts 355°
2026-05-07 11:19 27.47190 68.77296 37626 ft 463 kts 355°
2026-05-07 11:20 27.53620 68.77630 37623 ft 463 kts 355°
2026-05-07 11:20 27.60050 68.77966 37624 ft 462 kts 355°
2026-05-07 11:21 27.66471 68.78301 37620 ft 462 kts 355°
2026-05-07 11:21 27.72888 68.78636 37617 ft 462 kts 355°
2026-05-07 11:22 27.79307 68.78970 37615 ft 462 kts 355°
2026-05-07 11:22 27.85721 68.79306 37631 ft 462 kts 355°
2026-05-07 11:23 27.92143 68.79642 37613 ft 461 kts 355°
2026-05-07 11:23 27.98554 68.79978 37611 ft 461 kts 355°
2026-05-07 11:24 28.04970 68.80315 37610 ft 461 kts 355°
2026-05-07 11:24 28.11383 68.80652 37610 ft 461 kts 355°
2026-05-07 11:25 28.17793 68.80990 37608 ft 460 kts 355°
2026-05-07 11:25 28.24184 68.81327 37620 ft 460 kts 355°
2026-05-07 11:26 28.30571 68.81663 37619 ft 460 kts 355°
2026-05-07 11:26 28.36924 68.81998 37611 ft 460 kts 355°
2026-05-07 11:27 28.43310 68.82336 37619 ft 459 kts 355°
2026-05-07 11:27 28.49701 68.82674 37622 ft 459 kts 355°
2026-05-07 11:28 28.56083 68.83012 37625 ft 459 kts 355°
2026-05-07 11:28 28.62467 68.83351 37634 ft 459 kts 355°
2026-05-07 11:29 28.68855 68.83690 37664 ft 459 kts 355°
2026-05-07 11:29 28.75243 68.84029 37644 ft 460 kts 355°
2026-05-07 11:30 28.81637 68.84370 37654 ft 460 kts 355°
2026-05-07 11:30 28.88025 68.84711 37650 ft 459 kts 355°
2026-05-07 11:31 28.94407 68.85052 37665 ft 459 kts 355°
2026-05-07 11:31 29.00794 68.85392 37663 ft 460 kts 355°
2026-05-07 11:32 29.10376 68.85905 37672 ft 459 kts 355°
2026-05-07 11:33 29.16756 68.86248 37693 ft 458 kts 355°
2026-05-07 11:33 29.23126 68.86590 37692 ft 458 kts 355°
2026-05-07 11:34 29.29496 68.86934 37692 ft 458 kts 355°
2026-05-07 11:34 29.35818 68.87274 37696 ft 458 kts 355°
2026-05-07 11:35 29.42184 68.87615 37696 ft 458 kts 355°
2026-05-07 11:35 29.48549 68.87958 37701 ft 458 kts 355°
2026-05-07 11:36 29.54914 68.88302 37701 ft 458 kts 355°
2026-05-07 11:36 29.61272 68.88646 37702 ft 457 kts 355°
2026-05-07 11:37 29.67632 68.88991 37703 ft 458 kts 355°
2026-05-07 11:37 29.73994 68.89335 37703 ft 458 kts 355°
2026-05-07 11:38 29.80360 68.89679 37702 ft 458 kts 354°
2026-05-07 11:38 29.86723 68.90031 37704 ft 458 kts 355°
2026-05-07 11:39 29.93093 68.90377 37701 ft 458 kts 355°
2026-05-07 11:39 29.99449 68.90723 37707 ft 457 kts 355°
2026-05-07 11:40 30.05807 68.91068 37728 ft 458 kts 354°
2026-05-07 11:40 30.12155 68.91415 37710 ft 456 kts 354°
2026-05-07 11:41 30.18482 68.91761 37710 ft 455 kts 354°
2026-05-07 11:41 30.24811 68.92106 37713 ft 455 kts 354°
2026-05-07 11:42 30.31097 68.92451 37719 ft 456 kts 354°
2026-05-07 11:42 30.37445 68.92797 37721 ft 458 kts 355°
2026-05-07 11:43 30.43819 68.93147 37728 ft 458 kts 355°
2026-05-07 11:43 30.50190 68.93500 37727 ft 459 kts 355°
2026-05-07 11:44 30.56561 68.93852 37730 ft 458 kts 355°
2026-05-07 11:44 30.62923 68.94202 37734 ft 458 kts 354°
2026-05-07 11:45 30.69291 68.94553 37738 ft 458 kts 354°
2026-05-07 11:45 30.75656 68.94906 37741 ft 458 kts 354°
2026-05-07 11:46 30.82031 68.95259 37741 ft 458 kts 354°
2026-05-07 11:46 30.88397 68.95613 37757 ft 457 kts 355°
2026-05-07 11:47 30.94754 68.95968 37751 ft 457 kts 354°
2026-05-07 11:47 31.01101 68.96320 37767 ft 457 kts 355°
2026-05-07 11:48 31.07450 68.96676 37775 ft 457 kts 355°
2026-05-07 11:48 31.13801 68.97029 37777 ft 457 kts 355°
2026-05-07 11:49 31.20147 68.97383 38062 ft 456 kts 354°
2026-05-07 11:49 31.23313 68.97562 38343 ft 455 kts 354°
2026-05-07 11:49 31.26468 68.97740 38532 ft 454 kts 354°
2026-05-07 11:49 31.29625 68.97917 38696 ft 454 kts 354°
2026-05-07 11:50 31.32775 68.98096 38836 ft 453 kts 354°
2026-05-07 11:50 31.35926 68.98275 38947 ft 454 kts 354°
2026-05-07 11:50 31.39082 68.98451 39097 ft 454 kts 354°
2026-05-07 11:50 31.42232 68.98628 39239 ft 453 kts 354°
2026-05-07 11:51 31.45334 68.98799 39359 ft 452 kts 354°
2026-05-07 11:51 31.51624 68.99135 39577 ft 452 kts 354°
2026-05-07 11:51 31.54764 68.99314 39713 ft 451 kts 354°
2026-05-07 11:52 31.57894 68.99378 39785 ft 448 kts 350°
2026-05-07 11:52 31.63917 68.98190 39828 ft 433 kts 336°
2026-05-07 11:53 31.69219 68.95135 39803 ft 420 kts 321°
2026-05-07 11:53 31.73542 68.90609 39809 ft 415 kts 310°
2026-05-07 11:54 31.77288 68.85459 39781 ft 414 kts 307°
2026-05-07 11:54 31.80923 68.80178 39802 ft 417 kts 307°
2026-05-07 11:55 31.84607 68.74904 39804 ft 417 kts 308°
2026-05-07 11:55 31.88324 68.69659 39813 ft 417 kts 308°
2026-05-07 11:56 31.92052 68.64418 39816 ft 418 kts 308°
2026-05-07 11:56 31.95779 68.59173 39816 ft 418 kts 308°
2026-05-07 11:57 31.99501 68.53920 39811 ft 418 kts 308°
2026-05-07 11:57 32.03195 68.48698 39823 ft 417 kts 308°
2026-05-07 11:58 32.06902 68.43450 39826 ft 416 kts 308°
2026-05-07 11:58 32.10606 68.38199 39826 ft 416 kts 308°
2026-05-07 11:59 32.13710 68.33795 39826 ft 417 kts 308°
2026-05-07 11:59 32.17428 68.28600 39830 ft 417 kts 308°
2026-05-07 12:00 32.21185 68.23393 39825 ft 417 kts 308°
2026-05-07 12:00 32.24937 68.18173 39833 ft 416 kts 308°
2026-05-07 12:01 32.28677 68.12949 39824 ft 417 kts 308°
2026-05-07 12:01 32.32419 68.07709 39821 ft 417 kts 308°
2026-05-07 12:02 32.36164 68.02458 39813 ft 418 kts 308°
2026-05-07 12:02 32.39905 67.97206 39812 ft 417 kts 308°
2026-05-07 12:03 32.43645 67.91949 39802 ft 417 kts 308°
2026-05-07 12:03 32.47383 67.86686 39815 ft 418 kts 308°
2026-05-07 12:04 32.51124 67.81412 39790 ft 418 kts 308°
2026-05-07 12:04 32.54864 67.76132 39793 ft 418 kts 308°
2026-05-07 12:05 32.58605 67.70843 39795 ft 419 kts 308°
2026-05-07 12:05 32.62344 67.65550 39795 ft 419 kts 308°
2026-05-07 12:06 32.66084 67.60248 39799 ft 419 kts 308°
2026-05-07 12:06 32.69802 67.54967 39805 ft 420 kts 308°
2026-05-07 12:07 32.73554 67.49633 39806 ft 422 kts 307°
2026-05-07 12:07 32.77306 67.44286 39814 ft 421 kts 307°
2026-05-07 12:08 32.81064 67.38935 39830 ft 422 kts 307°
2026-05-07 12:08 32.84823 67.33570 39839 ft 422 kts 307°
2026-05-07 12:09 32.88580 67.28193 39859 ft 423 kts 307°
2026-05-07 12:09 32.92344 67.22802 39883 ft 424 kts 307°
2026-05-07 12:10 32.96108 67.17401 39883 ft 424 kts 307°
2026-05-07 12:10 32.99870 67.11990 39922 ft 424 kts 307°
2026-05-07 12:11 33.03630 67.06583 39918 ft 424 kts 307°
2026-05-07 12:11 33.07389 67.01171 39945 ft 424 kts 307°
2026-05-07 12:12 33.11144 66.95753 39939 ft 424 kts 307°
2026-05-07 12:12 33.14899 66.90324 39952 ft 424 kts 307°
2026-05-07 12:13 33.18651 66.84897 39940 ft 424 kts 307°
2026-05-07 12:13 33.22401 66.79463 39946 ft 424 kts 307°
2026-05-07 12:14 33.26149 66.74027 39934 ft 423 kts 307°
2026-05-07 12:14 33.29868 66.68628 39934 ft 424 kts 307°
2026-05-07 12:15 33.33633 66.63156 39897 ft 424 kts 307°
2026-05-07 12:15 33.37376 66.57694 39912 ft 425 kts 307°
2026-05-07 12:16 33.41093 66.52265 39892 ft 425 kts 306°
2026-05-07 12:16 33.44825 66.46794 39881 ft 424 kts 307°
2026-05-07 12:17 33.48556 66.41328 39876 ft 424 kts 306°
2026-05-07 12:17 33.52290 66.35853 39876 ft 424 kts 307°
2026-05-07 12:18 33.56023 66.30374 39877 ft 425 kts 306°
2026-05-07 12:18 33.59754 66.24881 39894 ft 425 kts 306°
2026-05-07 12:19 33.63480 66.19383 39899 ft 425 kts 306°
2026-05-07 12:19 33.67213 66.13877 39922 ft 426 kts 306°
2026-05-07 12:20 33.70944 66.08364 39918 ft 425 kts 306°
2026-05-07 12:20 33.74683 66.02833 39932 ft 427 kts 306°
2026-05-07 12:21 33.78436 65.97273 39943 ft 428 kts 306°
2026-05-07 12:21 33.82168 65.91728 39963 ft 426 kts 306°
2026-05-07 12:22 33.85895 65.86183 39965 ft 427 kts 306°
2026-05-07 12:22 33.89623 65.80633 39964 ft 426 kts 306°
2026-05-07 12:23 33.93347 65.75077 39968 ft 427 kts 306°
2026-05-07 12:23 33.97073 65.69504 39980 ft 427 kts 306°
2026-05-07 12:24 34.00797 65.63930 39984 ft 427 kts 305°
2026-05-07 12:24 34.04519 65.58358 39998 ft 427 kts 305°
2026-05-07 12:25 34.08211 65.52826 39999 ft 426 kts 305°
2026-05-07 12:25 34.11915 65.47257 40022 ft 426 kts 305°
2026-05-07 12:26 34.15623 65.41671 40020 ft 426 kts 305°
2026-05-07 12:26 34.19329 65.36081 40029 ft 427 kts 305°
2026-05-07 12:27 34.23043 65.30474 40031 ft 427 kts 305°
2026-05-07 12:27 34.26751 65.24868 40032 ft 427 kts 305°
2026-05-07 12:28 34.30453 65.19258 40037 ft 427 kts 305°
2026-05-07 12:28 34.34151 65.13645 40052 ft 427 kts 305°
2026-05-07 12:29 34.37850 65.08030 40038 ft 427 kts 305°
2026-05-07 12:29 34.41543 65.02407 40046 ft 427 kts 305°
2026-05-07 12:30 34.45234 64.96779 40039 ft 427 kts 305°
2026-05-07 12:30 34.48923 64.91145 40060 ft 427 kts 305°
2026-05-07 12:31 34.52606 64.85509 40056 ft 426 kts 305°
2026-05-07 12:31 34.56294 64.79859 40062 ft 428 kts 305°
2026-05-07 12:32 34.59986 64.74193 40061 ft 428 kts 305°
2026-05-07 12:32 34.63673 64.68526 40066 ft 428 kts 305°
2026-05-07 12:33 34.69202 64.60020 40068 ft 428 kts 305°
2026-05-07 12:33 34.72885 64.54335 40071 ft 429 kts 305°
2026-05-07 12:34 34.76555 64.48657 40055 ft 430 kts 305°
2026-05-07 12:34 34.80275 64.42902 40058 ft 430 kts 305°
2026-05-07 12:35 34.83945 64.37214 40038 ft 429 kts 306°
2026-05-07 12:35 34.87624 64.31500 40038 ft 429 kts 304°
2026-05-07 12:36 34.91319 64.25750 40016 ft 432 kts 305°
2026-05-07 12:36 34.95033 64.19964 39992 ft 433 kts 304°
2026-05-07 12:37 34.98745 64.14169 39992 ft 434 kts 304°
2026-05-07 12:37 35.02460 64.08366 39972 ft 434 kts 304°
2026-05-07 12:38 35.06172 64.02557 39978 ft 434 kts 304°
2026-05-07 12:38 35.09882 63.96737 39963 ft 435 kts 304°
2026-05-07 12:39 35.13577 63.90935 39962 ft 435 kts 304°
2026-05-07 12:39 35.17296 63.85089 39953 ft 435 kts 304°
2026-05-07 12:40 35.21000 63.79246 39953 ft 435 kts 304°
2026-05-07 12:40 35.24709 63.73386 39926 ft 436 kts 304°
2026-05-07 12:41 35.28417 63.67512 39941 ft 436 kts 304°
2026-05-07 12:41 35.32095 63.61695 39919 ft 435 kts 304°
2026-05-07 12:42 35.35798 63.55839 39919 ft 434 kts 304°
2026-05-07 12:42 35.39495 63.49976 39920 ft 435 kts 304°
2026-05-07 12:43 35.43197 63.44092 39899 ft 437 kts 304°
2026-05-07 12:43 35.46904 63.38191 39901 ft 436 kts 304°
2026-05-07 12:44 35.50602 63.32294 39891 ft 436 kts 304°
2026-05-07 12:44 35.54294 63.26397 39891 ft 435 kts 304°
2026-05-07 12:45 35.57988 63.20491 39886 ft 436 kts 304°
2026-05-07 12:45 35.61664 63.14567 39883 ft 436 kts 303°
2026-05-07 12:46 35.65306 63.08613 39886 ft 435 kts 303°
2026-05-07 12:46 35.68321 63.03675 39878 ft 434 kts 303°
2026-05-07 12:47 35.71948 62.97734 39879 ft 434 kts 303°
2026-05-07 12:47 35.75577 62.91787 39878 ft 434 kts 303°
2026-05-07 12:48 35.79202 62.85839 39878 ft 434 kts 303°
2026-05-07 12:48 35.82822 62.79891 39877 ft 434 kts 303°
2026-05-07 12:49 35.86434 62.73947 39881 ft 433 kts 303°
2026-05-07 12:49 35.90039 62.68003 39880 ft 433 kts 303°
2026-05-07 12:50 35.93641 62.62051 39886 ft 433 kts 303°
2026-05-07 12:50 35.97243 62.56090 39886 ft 433 kts 303°
2026-05-07 12:51 36.00842 62.50125 39889 ft 433 kts 303°
2026-05-07 12:51 36.04432 62.44164 39896 ft 432 kts 303°
2026-05-07 12:52 36.08021 62.38192 39901 ft 433 kts 303°
2026-05-07 12:52 36.11609 62.32213 39899 ft 433 kts 302°
2026-05-07 12:53 36.15191 62.26234 39906 ft 433 kts 302°
2026-05-07 12:53 36.18750 62.20284 39910 ft 433 kts 302°
2026-05-07 12:54 36.22333 62.14282 39908 ft 433 kts 302°
2026-05-07 12:54 36.25911 62.08279 39908 ft 433 kts 302°
2026-05-07 12:55 36.29487 62.02268 39914 ft 433 kts 302°
2026-05-07 12:55 36.33059 61.96253 39914 ft 433 kts 302°
2026-05-07 12:56 36.36631 61.90228 39918 ft 434 kts 302°
2026-05-07 12:56 36.40205 61.84188 39919 ft 434 kts 302°
2026-05-07 12:57 36.43775 61.78144 39918 ft 434 kts 302°
2026-05-07 12:57 36.47344 61.72092 39916 ft 434 kts 302°
2026-05-07 12:58 36.50907 61.66039 39923 ft 435 kts 302°
2026-05-07 12:58 36.54477 61.59963 39922 ft 435 kts 302°
2026-05-07 12:59 36.58046 61.53878 39926 ft 435 kts 302°
2026-05-07 12:59 36.61611 61.47791 39927 ft 435 kts 302°
2026-05-07 13:00 36.65160 61.41678 39945 ft 435 kts 301°
2026-05-07 13:00 36.68636 61.35548 39929 ft 436 kts 301°
2026-05-07 13:01 36.72132 61.29363 39952 ft 436 kts 301°
2026-05-07 13:01 36.75627 61.23192 39939 ft 436 kts 301°
2026-05-07 13:02 36.79122 61.17021 39952 ft 436 kts 301°
2026-05-07 13:02 36.82621 61.10832 39947 ft 437 kts 301°
2026-05-07 13:03 36.86123 61.04627 39959 ft 437 kts 301°
2026-05-07 13:03 36.89620 60.98421 39966 ft 436 kts 301°
2026-05-07 13:04 36.93107 60.92220 39989 ft 436 kts 301°
2026-05-07 13:04 36.96594 60.86005 39974 ft 437 kts 301°
2026-05-07 13:05 37.00170 60.79844 39972 ft 439 kts 303°
2026-05-07 13:05 37.03974 60.73855 39970 ft 439 kts 304°
2026-05-07 13:06 37.05855 60.70929 39973 ft 424 kts 303°
2026-05-07 13:06 37.07664 60.68103 39977 ft 408 kts 303°
2026-05-07 13:06 37.09398 60.65370 39990 ft 394 kts 303°
2026-05-07 13:06 37.11062 60.62726 39986 ft 378 kts 302°
2026-05-07 13:07 37.12651 60.60186 39982 ft 363 kts 302°
2026-05-07 13:07 37.14172 60.57746 39980 ft 347 kts 302°
2026-05-07 13:07 37.15622 60.55416 39979 ft 330 kts 301°
2026-05-07 13:07 37.16997 60.53205 39977 ft 313 kts 301°
2026-05-07 13:08 37.18297 60.51116 39973 ft 296 kts 301°
2026-05-07 13:08 37.19561 60.49062 39788 ft 300 kts 300°
2026-05-07 13:08 37.20823 60.46976 39747 ft 298 kts 300°
2026-05-07 13:08 37.22056 60.44914 39842 ft 293 kts 300°
2026-05-07 13:09 37.23263 60.42869 39838 ft 291 kts 299°
2026-05-07 13:09 37.24461 60.40805 39696 ft 294 kts 299°
2026-05-07 13:09 37.25657 60.38702 39574 ft 297 kts 298°
2026-05-07 13:09 37.26840 60.36587 39590 ft 294 kts 298°
2026-05-07 13:10 37.27995 60.34494 39655 ft 290 kts 297°
2026-05-07 13:10 37.29114 60.32433 39619 ft 289 kts 297°
2026-05-07 13:10 37.30234 60.30330 39517 ft 291 kts 297°
2026-05-07 13:10 37.31350 60.28193 39401 ft 293 kts 296°
2026-05-07 13:11 37.32454 60.26038 39376 ft 292 kts 296°
2026-05-07 13:11 37.33533 60.23895 39454 ft 288 kts 295°
2026-05-07 13:11 37.34585 60.21770 39476 ft 285 kts 295°
2026-05-07 13:11 37.35618 60.19645 39423 ft 285 kts 295°
2026-05-07 13:12 37.36640 60.17496 39338 ft 288 kts 294°
2026-05-07 13:12 37.37657 60.15318 39238 ft 290 kts 293°
2026-05-07 13:12 37.38659 60.13129 39243 ft 288 kts 293°
2026-05-07 13:12 37.39640 60.10956 39313 ft 283 kts 292°
2026-05-07 13:13 37.40596 60.08805 39353 ft 280 kts 292°
2026-05-07 13:13 37.41534 60.06657 39292 ft 281 kts 292°
2026-05-07 13:13 37.42462 60.04487 39180 ft 283 kts 291°
2026-05-07 13:13 37.43384 60.02283 39098 ft 285 kts 291°
2026-05-07 13:14 37.44290 60.00074 39098 ft 283 kts 291°
2026-05-07 13:14 37.45176 59.97874 39146 ft 280 kts 290°
2026-05-07 13:14 37.46037 59.95697 39166 ft 277 kts 290°
2026-05-07 13:14 37.46883 59.93516 39116 ft 277 kts 289°
2026-05-07 13:15 37.47716 59.91317 39014 ft 279 kts 289°
2026-05-07 13:15 37.48540 59.89094 38937 ft 280 kts 289°
2026-05-07 13:15 37.49349 59.86865 38938 ft 279 kts 288°
2026-05-07 13:15 37.50140 59.84645 38948 ft 277 kts 288°
2026-05-07 13:16 37.50916 59.82430 38946 ft 276 kts 287°
2026-05-07 13:16 37.51678 59.80208 38898 ft 277 kts 287°
2026-05-07 13:16 37.52428 59.77975 38826 ft 277 kts 287°
2026-05-07 13:16 37.53165 59.75731 38796 ft 277 kts 286°
2026-05-07 13:17 37.53878 59.73519 38795 ft 275 kts 286°
2026-05-07 13:17 37.54582 59.71287 38803 ft 274 kts 285°
2026-05-07 13:17 37.55271 59.69053 38774 ft 273 kts 285°
2026-05-07 13:17 37.55946 59.66814 38719 ft 273 kts 285°
2026-05-07 13:18 37.56608 59.64566 38676 ft 274 kts 284°
2026-05-07 13:18 37.57255 59.62315 38650 ft 273 kts 284°
2026-05-07 13:18 37.57887 59.60063 38637 ft 272 kts 284°
2026-05-07 13:18 37.58502 59.57814 38597 ft 272 kts 283°
2026-05-07 13:19 37.59104 59.55551 38505 ft 273 kts 283°
2026-05-07 13:19 37.59692 59.53276 38457 ft 273 kts 282°
2026-05-07 13:19 37.60268 59.50991 38423 ft 273 kts 282°
2026-05-07 13:19 37.60830 59.48707 38414 ft 272 kts 281°
2026-05-07 13:20 37.61376 59.46427 38409 ft 271 kts 281°
2026-05-07 13:20 37.61907 59.44151 38392 ft 270 kts 281°
2026-05-07 13:20 37.62423 59.41875 38349 ft 270 kts 280°
2026-05-07 13:20 37.62924 59.39591 38305 ft 270 kts 280°
2026-05-07 13:21 37.63409 59.37303 38270 ft 270 kts 279°
2026-05-07 13:21 37.63877 59.35015 38253 ft 269 kts 279°
2026-05-07 13:21 37.64327 59.32732 38245 ft 268 kts 278°
2026-05-07 13:21 37.64758 59.30452 38225 ft 267 kts 278°
2026-05-07 13:22 37.65171 59.28175 38221 ft 266 kts 278°
2026-05-07 13:22 37.65565 59.25903 38217 ft 265 kts 277°
2026-05-07 13:22 37.65942 59.23629 38177 ft 265 kts 277°
2026-05-07 13:22 37.66301 59.21347 38146 ft 265 kts 276°
2026-05-07 13:23 37.66641 59.19065 38112 ft 264 kts 276°
2026-05-07 13:23 37.66961 59.16786 38096 ft 263 kts 275°
2026-05-07 13:23 37.67260 59.14511 38085 ft 263 kts 275°
2026-05-07 13:23 37.67540 59.12235 38057 ft 262 kts 274°
2026-05-07 13:24 37.67798 59.09958 38058 ft 262 kts 274°
2026-05-07 13:24 37.68037 59.07676 38017 ft 262 kts 273°
2026-05-07 13:24 37.68253 59.05392 37988 ft 262 kts 272°
2026-05-07 13:24 37.68448 59.03107 37997 ft 261 kts 272°
2026-05-07 13:25 37.68620 59.00828 37987 ft 260 kts 271°
2026-05-07 13:25 37.68771 58.98556 37982 ft 259 kts 271°
2026-05-07 13:25 37.68897 58.96297 37977 ft 258 kts 270°
2026-05-07 13:25 37.68998 58.94042 37936 ft 257 kts 270°
2026-05-07 13:26 37.69076 58.91783 37879 ft 258 kts 269°
2026-05-07 13:26 37.69134 58.89518 37833 ft 258 kts 269°
2026-05-07 13:26 37.69170 58.87261 37829 ft 257 kts 268°
2026-05-07 13:26 37.69184 58.85046 37833 ft 255 kts 268°
2026-05-07 13:27 37.69175 58.82814 37785 ft 253 kts 266°
2026-05-07 13:27 37.69137 58.80581 37706 ft 256 kts 266°
2026-05-07 13:27 37.69071 58.78329 37638 ft 257 kts 265°
2026-05-07 13:27 37.68978 58.76076 37656 ft 256 kts 265°
2026-05-07 13:28 37.68859 58.73849 37726 ft 253 kts 264°
2026-05-07 13:28 37.68714 58.71649 37749 ft 251 kts 263°
2026-05-07 13:28 37.68542 58.69455 37686 ft 252 kts 262°
2026-05-07 13:28 37.68340 58.67247 37586 ft 254 kts 262°
2026-05-07 13:29 37.68108 58.65031 37541 ft 255 kts 261°
2026-05-07 13:29 37.67847 58.62828 37563 ft 252 kts 260°
2026-05-07 13:29 37.67564 58.60665 37561 ft 249 kts 259°
2026-05-07 13:29 37.67260 58.58506 37490 ft 251 kts 259°
2026-05-07 13:30 37.66921 58.56339 37368 ft 253 kts 258°
2026-05-07 13:30 37.66539 58.54168 37296 ft 253 kts 257°
2026-05-07 13:30 37.66121 58.52015 37280 ft 251 kts 256°
2026-05-07 13:30 37.65690 58.49896 37202 ft 249 kts 256°
2026-05-07 13:31 37.65274 58.47767 37113 ft 250 kts 257°
2026-05-07 13:31 37.64914 58.45620 37089 ft 250 kts 259°
2026-05-07 13:31 37.64619 58.43462 37141 ft 248 kts 261°
2026-05-07 13:31 37.64388 58.41315 37199 ft 246 kts 263°
2026-05-07 13:32 37.64222 58.39169 37166 ft 246 kts 264°
2026-05-07 13:32 37.64124 58.37004 37072 ft 249 kts 266°
2026-05-07 13:32 37.64093 58.34841 37001 ft 251 kts 268°
2026-05-07 13:32 37.64129 58.32616 37012 ft 250 kts 270°
2026-05-07 13:33 37.64266 58.30458 36862 ft 257 kts 276°
2026-05-07 13:33 37.65090 58.28194 35430 ft 322 kts 303°
2026-05-07 13:33 37.67008 58.26309 34481 ft 379 kts 325°
2026-05-07 13:33 37.69552 58.25001 34084 ft 407 kts 333°
2026-05-07 13:34 37.72304 58.23953 34113 ft 418 kts 336°
2026-05-07 13:34 37.77714 58.21251 34288 ft 421 kts 326°
2026-05-07 13:35 37.83014 58.17906 34460 ft 431 kts 324°
2026-05-07 13:35 37.85677 58.16155 34655 ft 431 kts 324°
2026-05-07 13:35 37.87469 58.14972 34903 ft 430 kts 324°
2026-05-07 13:35 37.90089 58.13256 35201 ft 431 kts 324°
2026-05-07 13:36 37.92764 58.11511 35389 ft 434 kts 324°
2026-05-07 13:36 37.95460 58.09755 35612 ft 437 kts 325°
2026-05-07 13:36 37.98169 58.08000 35900 ft 437 kts 325°
2026-05-07 13:36 38.00879 58.06246 36223 ft 438 kts 325°
2026-05-07 13:37 38.03605 58.04490 36330 ft 441 kts 325°
2026-05-07 13:37 38.06352 58.02712 36437 ft 446 kts 325°
2026-05-07 13:37 38.09127 58.00905 36560 ft 449 kts 325°
2026-05-07 13:37 38.11911 57.99090 36689 ft 451 kts 325°
2026-05-07 13:38 38.14711 57.97264 36819 ft 454 kts 325°
2026-05-07 13:38 38.17525 57.95428 36985 ft 456 kts 325°
2026-05-07 13:38 38.20359 57.93579 37134 ft 459 kts 325°
2026-05-07 13:38 38.23209 57.91719 37308 ft 462 kts 324°
2026-05-07 13:39 38.26074 57.89847 37454 ft 464 kts 324°
2026-05-07 13:39 38.28956 57.87964 37612 ft 467 kts 324°
2026-05-07 13:39 38.31850 57.86071 37761 ft 469 kts 324°
2026-05-07 13:39 38.34758 57.84167 37941 ft 471 kts 324°
2026-05-07 13:40 38.37677 57.82254 38105 ft 472 kts 324°
2026-05-07 13:40 38.40601 57.80338 38279 ft 472 kts 324°
2026-05-07 13:40 38.43520 57.78425 38540 ft 471 kts 324°
2026-05-07 13:40 38.46350 57.76380 38791 ft 464 kts 319°
2026-05-07 13:41 38.48916 57.73962 39015 ft 454 kts 311°
2026-05-07 13:41 38.51142 57.71173 39238 ft 444 kts 304°
2026-05-07 13:41 38.53069 57.68128 39470 ft 438 kts 300°
2026-05-07 13:41 38.54834 57.64979 39696 ft 434 kts 298°
2026-05-07 13:42 38.56507 57.61787 39924 ft 432 kts 297°
2026-05-07 13:42 38.58150 57.58566 40035 ft 433 kts 296°
2026-05-07 13:42 38.59795 57.55321 40030 ft 437 kts 297°
2026-05-07 13:43 38.63136 57.48797 40026 ft 445 kts 297°
2026-05-07 13:43 38.66571 57.42188 40026 ft 446 kts 297°
2026-05-07 13:44 38.70016 57.35588 40030 ft 446 kts 297°
2026-05-07 13:44 38.73456 57.28979 40035 ft 446 kts 297°
2026-05-07 13:45 38.76893 57.22354 40031 ft 447 kts 297°
2026-05-07 13:45 38.80330 57.15714 40037 ft 447 kts 297°
2026-05-07 13:46 38.83761 57.09073 40036 ft 447 kts 297°
2026-05-07 13:46 38.87181 57.02440 40041 ft 445 kts 297°
2026-05-07 13:47 38.90595 56.95803 40034 ft 445 kts 297°
2026-05-07 13:47 38.94005 56.89160 40037 ft 445 kts 297°
2026-05-07 13:48 38.97409 56.82517 40038 ft 445 kts 297°
2026-05-07 13:48 39.00805 56.75876 40034 ft 444 kts 297°
2026-05-07 13:49 39.04197 56.69227 40040 ft 444 kts 297°
2026-05-07 13:49 39.07584 56.62573 40043 ft 444 kts 296°
2026-05-07 13:50 39.10966 56.55917 40040 ft 445 kts 296°
2026-05-07 13:50 39.14358 56.49226 40033 ft 446 kts 296°
2026-05-07 13:51 39.17749 56.42523 40032 ft 447 kts 296°
2026-05-07 13:51 39.21138 56.35813 40064 ft 447 kts 296°
2026-05-07 13:52 39.24530 56.29081 40036 ft 448 kts 296°
2026-05-07 13:52 39.27900 56.22378 40033 ft 448 kts 296°
2026-05-07 13:53 39.31284 56.15637 40032 ft 447 kts 296°
2026-05-07 13:53 39.34664 56.08885 40040 ft 448 kts 296°
2026-05-07 13:54 39.38043 56.02121 40032 ft 448 kts 296°
2026-05-07 13:54 39.41420 55.95348 40033 ft 448 kts 296°
2026-05-07 13:55 39.44792 55.88570 40030 ft 448 kts 296°
2026-05-07 13:55 39.48161 55.81783 40028 ft 449 kts 296°
2026-05-07 13:56 39.51481 55.74949 40032 ft 447 kts 294°
2026-05-07 13:56 39.54653 55.68051 40032 ft 445 kts 294°
2026-05-07 13:57 39.57811 55.61144 40032 ft 446 kts 294°
2026-05-07 13:57 39.60992 55.54227 40031 ft 447 kts 294°
2026-05-07 13:58 39.64185 55.47306 40032 ft 447 kts 294°
2026-05-07 13:58 39.67354 55.40426 40033 ft 447 kts 294°
2026-05-07 13:59 39.70556 55.33452 40033 ft 446 kts 294°
2026-05-07 13:59 39.73633 55.26520 40038 ft 446 kts 293°
2026-05-07 14:00 39.76693 55.19521 40039 ft 445 kts 293°
2026-05-07 14:00 39.79762 55.12508 40044 ft 447 kts 293°
2026-05-07 14:01 39.82162 55.05182 40045 ft 435 kts 279°
2026-05-07 14:01 39.82945 54.97504 40049 ft 426 kts 266°
2026-05-07 14:02 39.82823 54.89814 40050 ft 425 kts 264°
2026-05-07 14:02 39.82557 54.82140 40050 ft 425 kts 264°
2026-05-07 14:03 39.82881 54.74425 40054 ft 432 kts 276°
2026-05-07 14:03 39.84295 54.66790 40062 ft 436 kts 279°
2026-05-07 14:04 39.85926 54.59184 40062 ft 436 kts 280°
2026-05-07 14:04 39.87577 54.51585 40063 ft 436 kts 280°
2026-05-07 14:05 39.89191 54.44030 40087 ft 436 kts 280°
2026-05-07 14:05 39.90807 54.36350 40061 ft 437 kts 279°
2026-05-07 14:06 39.92384 54.28754 40065 ft 438 kts 279°
2026-05-07 14:06 39.93969 54.21099 40064 ft 437 kts 279°
2026-05-07 14:07 39.95552 54.13443 40065 ft 437 kts 279°
2026-05-07 14:07 39.97131 54.05785 40067 ft 438 kts 279°
2026-05-07 14:08 39.98707 53.98117 40071 ft 438 kts 279°
2026-05-07 14:08 40.00278 53.90442 40069 ft 438 kts 279°
2026-05-07 14:09 40.01844 53.82760 40072 ft 438 kts 279°
2026-05-07 14:09 40.03404 53.75083 40094 ft 438 kts 279°
2026-05-07 14:10 40.04959 53.67397 40074 ft 439 kts 279°
2026-05-07 14:10 40.06513 53.59694 40076 ft 439 kts 279°
2026-05-07 14:11 40.08060 53.51996 40073 ft 439 kts 279°
2026-05-07 14:11 40.09602 53.44290 40081 ft 439 kts 279°
2026-05-07 14:12 40.11141 53.36571 40086 ft 440 kts 279°
2026-05-07 14:12 40.12679 53.28830 40083 ft 441 kts 279°
2026-05-07 14:13 40.14285 53.21092 40088 ft 441 kts 279°
2026-05-07 14:13 40.15929 53.13365 40091 ft 441 kts 279°
2026-05-07 14:14 40.17561 53.05629 40118 ft 441 kts 279°
2026-05-07 14:14 40.19178 52.97877 40100 ft 442 kts 279°
2026-05-07 14:15 40.20789 52.90106 40100 ft 443 kts 279°
2026-05-07 14:15 40.22396 52.82329 40103 ft 443 kts 279°
2026-05-07 14:16 40.23999 52.74546 40101 ft 443 kts 279°
2026-05-07 14:16 40.25585 52.66812 40105 ft 443 kts 279°
2026-05-07 14:17 40.27178 52.59015 40102 ft 444 kts 279°
2026-05-07 14:17 40.28768 52.51209 40102 ft 444 kts 279°
2026-05-07 14:18 40.30352 52.43402 40103 ft 444 kts 279°
2026-05-07 14:18 40.31930 52.35593 40119 ft 443 kts 279°
2026-05-07 14:19 40.33504 52.27775 40105 ft 443 kts 279°
2026-05-07 14:19 40.35073 52.19952 40096 ft 443 kts 279°
2026-05-07 14:20 40.36630 52.12158 40105 ft 443 kts 279°
2026-05-07 14:20 40.38187 52.04333 40108 ft 443 kts 279°
2026-05-07 14:21 40.39739 51.96504 40092 ft 443 kts 279°
2026-05-07 14:21 40.41287 51.88670 40108 ft 443 kts 279°
2026-05-07 14:22 40.42827 51.80841 40107 ft 443 kts 279°
2026-05-07 14:22 40.44354 51.73049 40106 ft 443 kts 279°
2026-05-07 14:23 40.45883 51.65218 40119 ft 443 kts 279°
2026-05-07 14:23 40.47406 51.57381 40106 ft 443 kts 279°
2026-05-07 14:24 40.48678 51.50814 40110 ft 443 kts 279°
2026-05-07 14:24 40.50192 51.42973 40103 ft 443 kts 279°
2026-05-07 14:25 40.51700 51.35128 40105 ft 443 kts 279°
2026-05-07 14:25 40.53203 51.27282 40109 ft 443 kts 279°
2026-05-07 14:26 40.54692 51.19476 40103 ft 443 kts 279°
2026-05-07 14:26 40.56185 51.11619 40109 ft 443 kts 278°
2026-05-07 14:27 40.57672 51.03758 40102 ft 443 kts 278°
2026-05-07 14:27 40.59154 50.95899 40121 ft 443 kts 278°
2026-05-07 14:28 40.60630 50.88033 40097 ft 443 kts 278°
2026-05-07 14:28 40.62102 50.80159 40095 ft 443 kts 278°
2026-05-07 14:29 40.63568 50.72286 40093 ft 443 kts 278°
2026-05-07 14:29 40.65028 50.64408 40091 ft 443 kts 278°
2026-05-07 14:30 40.66482 50.56534 40089 ft 443 kts 278°
2026-05-07 14:30 40.67935 50.48632 40084 ft 444 kts 278°
2026-05-07 14:31 40.69383 50.40727 40085 ft 444 kts 278°
2026-05-07 14:31 40.70826 50.32817 40078 ft 444 kts 278°
2026-05-07 14:32 40.72263 50.24906 40096 ft 444 kts 278°
2026-05-07 14:32 40.73695 50.16983 40082 ft 445 kts 278°
2026-05-07 14:33 40.75126 50.09039 40078 ft 445 kts 278°
2026-05-07 14:33 40.76551 50.01092 40079 ft 445 kts 278°
2026-05-07 14:34 40.77961 49.93199 40084 ft 445 kts 278°
2026-05-07 14:34 40.79375 49.85243 40083 ft 446 kts 278°
2026-05-07 14:35 40.80790 49.77245 40082 ft 448 kts 278°
2026-05-07 14:35 40.82204 49.69226 40079 ft 448 kts 278°
2026-05-07 14:36 40.83613 49.61204 40079 ft 448 kts 278°
2026-05-07 14:36 40.85014 49.53187 40102 ft 448 kts 278°
2026-05-07 14:37 40.86415 49.45128 40086 ft 451 kts 278°
2026-05-07 14:37 40.88517 49.32979 40091 ft 452 kts 278°
2026-05-07 14:38 40.89913 49.24866 40100 ft 453 kts 278°
2026-05-07 14:38 40.91301 49.16773 40113 ft 451 kts 278°
2026-05-07 14:39 40.92679 49.08689 40098 ft 451 kts 278°
2026-05-07 14:39 40.94052 49.00592 40093 ft 451 kts 278°
2026-05-07 14:40 40.95421 48.92489 40107 ft 451 kts 278°
2026-05-07 14:40 40.96784 48.84386 40106 ft 452 kts 278°
2026-05-07 14:41 40.98142 48.76273 40110 ft 452 kts 278°
2026-05-07 14:41 40.99499 48.68127 40101 ft 453 kts 278°
2026-05-07 14:42 41.00850 48.59979 40107 ft 454 kts 278°
2026-05-07 14:42 41.02199 48.51797 40105 ft 454 kts 278°
2026-05-07 14:43 41.03525 48.43672 40113 ft 455 kts 277°
2026-05-07 14:43 41.04873 48.35474 40116 ft 454 kts 278°
2026-05-07 14:44 41.06213 48.27269 40111 ft 456 kts 277°
2026-05-07 14:44 41.07551 48.19060 40129 ft 457 kts 277°
2026-05-07 14:45 41.08881 48.10845 40122 ft 455 kts 277°
2026-05-07 14:45 41.10191 48.02640 40120 ft 456 kts 277°
2026-05-07 14:46 41.11502 47.94397 40125 ft 458 kts 278°
2026-05-07 14:46 41.12803 47.86121 40115 ft 459 kts 277°
2026-05-07 14:47 41.14100 47.77832 40118 ft 459 kts 277°
2026-05-07 14:47 41.15392 47.69559 40135 ft 459 kts 278°
2026-05-07 14:48 41.16684 47.61221 40116 ft 461 kts 278°
2026-05-07 14:48 41.17969 47.52888 40115 ft 461 kts 278°
2026-05-07 14:49 41.19248 47.44539 40127 ft 462 kts 278°
2026-05-07 14:49 41.20522 47.36195 40119 ft 461 kts 278°
2026-05-07 14:50 41.21793 47.27835 40130 ft 463 kts 278°
2026-05-07 14:50 41.23059 47.19461 40134 ft 462 kts 278°
2026-05-07 14:51 41.24321 47.11083 40127 ft 462 kts 278°
2026-05-07 14:51 41.25566 47.02770 40129 ft 462 kts 277°
2026-05-07 14:52 41.26812 46.94394 40139 ft 462 kts 278°
2026-05-07 14:52 41.28054 46.86003 40120 ft 463 kts 277°
2026-05-07 14:53 41.29292 46.77601 40126 ft 463 kts 277°
2026-05-07 14:53 41.30513 46.69196 40130 ft 463 kts 277°
2026-05-07 14:54 41.31688 46.60780 40138 ft 462 kts 277°
2026-05-07 14:54 41.32852 46.52361 40127 ft 463 kts 277°
2026-05-07 14:55 41.34020 46.43926 40121 ft 464 kts 277°
2026-05-07 14:55 41.35185 46.35485 40119 ft 464 kts 277°
2026-05-07 14:56 41.36344 46.27047 40126 ft 464 kts 277°
2026-05-07 14:56 41.37496 46.18603 40129 ft 464 kts 277°
2026-05-07 14:57 41.38644 46.10148 40127 ft 464 kts 277°
2026-05-07 14:57 41.39786 46.01683 40123 ft 465 kts 277°
2026-05-07 14:58 41.40924 45.93204 40130 ft 465 kts 277°
2026-05-07 14:58 41.42055 45.84720 40138 ft 465 kts 277°
2026-05-07 14:59 41.43181 45.76233 40121 ft 465 kts 277°
2026-05-07 14:59 41.44301 45.67736 40134 ft 465 kts 277°
2026-05-07 15:00 41.45415 45.59238 40125 ft 466 kts 277°
2026-05-07 15:00 41.46522 45.50737 40127 ft 465 kts 277°
2026-05-07 15:01 41.47624 45.42226 40129 ft 466 kts 277°
2026-05-07 15:01 41.48696 45.33748 40126 ft 467 kts 275°
2026-05-07 15:02 41.49432 45.25158 40129 ft 466 kts 273°
2026-05-07 15:02 41.50043 45.16554 40124 ft 466 kts 273°
2026-05-07 15:03 41.50691 45.07956 40132 ft 466 kts 273°
2026-05-07 15:03 41.51372 44.99340 40136 ft 467 kts 274°
2026-05-07 15:04 41.52060 44.90710 40132 ft 468 kts 274°
2026-05-07 15:04 41.52742 44.82074 40133 ft 468 kts 274°
2026-05-07 15:05 41.53416 44.73434 40138 ft 468 kts 274°
2026-05-07 15:05 41.54082 44.64793 40141 ft 468 kts 273°
2026-05-07 15:06 41.54741 44.56154 40147 ft 468 kts 273°
2026-05-07 15:06 41.55395 44.47503 40149 ft 468 kts 273°
2026-05-07 15:07 41.56042 44.38853 40165 ft 468 kts 273°
2026-05-07 15:07 41.56682 44.30199 40163 ft 468 kts 273°
2026-05-07 15:08 41.56899 44.21545 40180 ft 465 kts 263°
2026-05-07 15:08 41.56126 44.12956 40172 ft 466 kts 260°
2026-05-07 15:09 41.55339 44.05842 40183 ft 466 kts 260°
2026-05-07 15:09 41.54359 43.97282 40185 ft 466 kts 260°
2026-05-07 15:10 41.53387 43.88734 40188 ft 466 kts 260°
2026-05-07 15:10 41.52418 43.80166 40191 ft 467 kts 260°
2026-05-07 15:11 41.51446 43.71593 40192 ft 467 kts 260°
2026-05-07 15:11 41.50468 43.63026 40197 ft 467 kts 260°
2026-05-07 15:12 41.49481 43.54438 40192 ft 469 kts 260°
2026-05-07 15:12 41.48483 43.45824 40189 ft 470 kts 260°
2026-05-07 15:13 41.47480 43.37221 40187 ft 470 kts 260°
2026-05-07 15:13 41.46470 43.28620 40187 ft 470 kts 259°
2026-05-07 15:14 41.45461 43.20081 40180 ft 469 kts 259°
2026-05-07 15:14 41.44438 43.11486 40184 ft 470 kts 259°
2026-05-07 15:15 41.43410 43.02890 40185 ft 470 kts 260°
2026-05-07 15:15 41.42373 42.94279 40184 ft 472 kts 260°
2026-05-07 15:16 41.41326 42.85642 40184 ft 472 kts 259°
2026-05-07 15:16 41.40272 42.77017 40183 ft 472 kts 259°
2026-05-07 15:17 41.39212 42.68390 40184 ft 472 kts 259°
2026-05-07 15:17 41.38145 42.59760 40186 ft 472 kts 259°
2026-05-07 15:18 41.37072 42.51136 40191 ft 472 kts 259°
2026-05-07 15:18 41.35992 42.42512 40193 ft 473 kts 259°
2026-05-07 15:19 41.34901 42.33860 40191 ft 475 kts 259°
2026-05-07 15:19 41.33802 42.25191 40198 ft 476 kts 259°
2026-05-07 15:20 41.32695 42.16513 40199 ft 476 kts 259°
2026-05-07 15:20 41.31581 42.07836 40199 ft 476 kts 259°
2026-05-07 15:21 41.30462 41.99170 40199 ft 476 kts 259°
2026-05-07 15:21 41.29335 41.90494 40199 ft 476 kts 259°
2026-05-07 15:22 41.28199 41.81897 40204 ft 476 kts 259°
2026-05-07 15:22 41.27042 41.73213 40199 ft 478 kts 259°
2026-05-07 15:23 41.25879 41.64515 40194 ft 478 kts 259°
2026-05-07 15:23 41.24710 41.55818 40199 ft 478 kts 259°
2026-05-07 15:24 41.23536 41.47126 40200 ft 478 kts 259°
2026-05-07 15:24 41.22356 41.38432 40198 ft 478 kts 259°